SCOUT G-1 R/B

Satellite information

Favourite Embed

Satellite Type and Status

ROCKET BODYIN ORBIT

Key statistics

Satellite SCOUT G-1 R/B at a glance.

Uptime

11754

Days in orbit

Revolutions

≈ 14.3

Per day

Orbit

LEO

Low Earth Orbit

Inclination

89.5

Latest

Satellite identification and parameters

Extended collection of information and parameters for SCOUT G-1 R/B.

Object identification

Identified? True

Debris? False

Object name: SCOUT G-1 R/B

International designator: 1993-041B

Object number (NORAD): 22699

Object ID (CCSDS): 22699

Country: UNITED STATES OF AMERICA (US)

Current information (Y/N): Y

RCS size: MEDIUM

Orbital parameters

Period: 100.946 minutes

Inclination: 89.4902 deg

SMA: 7181.579 km

Apoapsis: 865.23 km

Periapsis: 741.658 km

RAAN: 74.4609 deg

Eccentricy: 0.00860339

Argument of periapsis: 6.7168 deg

Mean anomaly: 353.5157 deg

Mean motion: 14.26503494 rev/day

Mean motion (dot): 0.00000315 rev/day2

B* drag term: 0.00012072644 1/REarth

Two-line elements (TLE)

Creation date: Aug. 30, 2025, 3:38 a.m.

Reference frame: TEME

Reference center: EARTH

Epoch: Aug. 29, 2025, 9:21 p.m. UTC

TLE line 0: 0 SCOUT G-1 R/B

TLE line 1: 1 22699U 93041B 25241.88984539 .00000315 00000-0 12073-3 0 9998

TLE line 2: 2 22699 89.4902 74.4609 0086034 6.7168 353.5157 14.26503494671743

Live tracking on map

Real-time ground track for satellite SCOUT G-1 R/B.

In-orbit conjunctions

A list of the most updated potential collisions computed for object SCOUT G-1 R/B.

Target Orbit TCA Probability of collision Miss distance Type
CZ-6A DEB LEO 2025-07-01 12:39:21 0.0001244623 703.0 (m) DEBRIS
CZ-6A DEB LEO 2024-12-31 21:40:10 0.0002091609 70.0 (m) DEBRIS
SL-8 DEB LEO 2024-10-27 05:38:19 0.0001354292 889.0 (m) DEBRIS
CZ-6A DEB SSO 2024-09-27 05:20:59 0.0002293045 113.0 (m) DEBRIS

Associated space launch

RadCal (Radar Calibration) is small satellite to calibrate the Space Command radars to determine orbital positions of other satellites to within a few meters.

SCOUT G-1 R/B was lifted into orbit during the mission ‘Scout G-1 | RADCAL’, on board a Scout G-1 space rocket.

The launch took place on June 25, 1993, 11:30 p.m. from Space Launch Complex 5.

For more information about the launch, click the button.

Launch to space Scout G-1 | RADCAL
Scout G-1 | RADCAL

Agency: N/A

Status: Launch Successful

Launch date: June 25, 1993, 11:30 p.m. UTC

Rocket: Scout G-1

Launch pad: Space Launch Complex 5

Location: Vandenberg SFB, CA, USA

...

Latest news about this satellite

There are no fresh news available about this satellite. Check back as we update our databases every day.


Newsletter sign-up

Weekly statistics, charts and insights to help you stay on top of the space industry.